Flag for China Weather past 2 weeks in Kunming, Yunnan, China

Now
68 °F

Scattered clouds.


Feels Like: 68 °F
Forecast: 59 / 67 °F
Wind: 3 mph from Northeast

Location: Kunming Airport

Current Time: Sep 19, 2014 at 1:57:08 PM

Latest Report: Sep 19, 2014 at 1:00 PM


Visibility: N/A

Pressure: 30.21 "Hg

Humidity: 83%

Dew point: 63 °F

Location of KunmingLocation

Historic Weather in Kunming — Graph

°F

Kunming temperature yesterday

Maximum temperature yesterday: 61 °F (at 2:00 PM)
Minimum temperature yesterday: 55 °F (at 12:00 AM)
Average temperature yesterday: 58 °F

Past Weeks' High & Low Weather Summary

 TemperatureHumidityPressure
High79 °F (Sep 8, 3:00 PM)100% (Sep 5, 1:00 AM)30.30 "Hg (Sep 5, 1:00 AM)
Low55 °F (Sep 17, 11:00 PM)45% (Sep 9, 4:00 PM)29.92 "Hg (Sep 16, 5:00 PM)
Average67 °F82%30.10 "Hg
* Reported Sep 4 12:00 Noon — Sep 19 12:00 Noon, Kunming, Weather by CustomWeather, © 2014

Note: Actual official high and low records may vary slightly from our data, if they occured in-between our weather recording intervals... More about our weather records

Advertising

Kunming weather history for previous 24 hours

 ConditionsComfort  
Time TempWeatherWind HumidityBarometerVisibility
12:00 PM
Sep 19
70 °FScattered clouds.6 mph78%30.24 "Hg5 mi
11:00 AM64 °FFog.3 mph100%30.27 "Hg3 mi
10:00 AM61 °FFog.3 mph100%30.30 "Hg2 mi
9:00 AM61 °FFog.3 mph100%30.27 "Hg1 mi
8:00 AM59 °FFog.3 mph100%30.27 "Hg1 mi
7:00 AM59 °FFog.1 mph100%30.24 "Hg1 mi
6:00 AM59 °FFog.3 mph100%30.24 "Hg2 mi
5:00 AM59 °FFog.1 mph100%30.21 "Hg2 mi
4:00 AM59 °FFog.3 mph100%30.21 "Hg2 mi
3:00 AM59 °FFog.3 mph100%30.24 "Hg3 mi
2:00 AM59 °FFog.3 mph100%30.27 "Hg2 mi
1:00 AM59 °FFog.6 mph100%30.27 "Hg2 mi
12:00 AM59 °FFog.6 mph100%30.30 "Hg2 mi
11:00 PM
Sep 18
59 °FFog.8 mph100%30.30 "Hg2 mi
10:00 PM59 °FFog.6 mph100%30.27 "Hg2 mi
9:00 PM59 °FFog.3 mph100%30.27 "Hg3 mi
8:00 PM61 °FFog.6 mph100%30.24 "Hg3 mi
7:00 PM61 °FFog.6 mph100%30.21 "Hg2 mi
6:00 PM61 °FSprinkles. More clouds than sun.6 mph100%30.21 "Hg4 mi
5:00 PM61 °FSprinkles. More clouds than sun.6 mph100%30.18 "Hg4 mi
4:00 PM61 °FSprinkles. More clouds than sun.6 mph100%30.18 "Hg5 mi
3:00 PM61 °FSprinkles. More clouds than sun.6 mph100%30.21 "Hg2 mi
2:00 PM61 °FMore clouds than sun.10 mph100%30.21 "HgN/A
1:00 PM57 °FSprinkles. Fog.10 mph100%30.24 "Hg2 mi
Weather by CustomWeather, © 2014

See weather overviewHow to use our weather pages